Weather History for KMML - December, 2012

Change the Weather History Date:

Thursday, December 20, 2012

  Actual Average Record
Temperature  
Mean Temperature 9 °F -  
Max Temperature 15 °F 22 °F 46 °F (1956)
Min Temperature 3 °F 5 °F -25 °F (1983)
Degree Days  
Heating Degree Days 56    
Moisture  
Dew Point 4 °F    
Average Humidity 78    
Maximum Humidity 100    
Minimum Humidity 68    
Precipitation  
Precipitation 0.00 in - - ()
Sea Level Pressure  
Sea Level Pressure 30.09 in    
Wind  
Wind Speed 21 mph (NW)    
Max Wind Speed 29 mph    
Max Gust Speed 33 mph    
Visibility 7 miles    
Events      
Averages and records for this station are not official NWS values.
T = Trace of Precipitation, MM = Missing Value Source: NWS Daily Summary

Daily Weather History Graph

Daily Weather History Graph

Search for Another Location

Airport or City:

Trip Planner

Search our weather history database for the weather conditions in past years. The results will help you decide how hot, cold, wet, or windy it might be!

Date:

Astronomy

Dec. 20, 2012 Rise Set
Actual Time 7:56 AM CST 4:46 PM CST
Civil Twilight 7:22 AM CST 5:19 PM CST
Nautical Twilight 6:45 AM CST 5:56 PM CST
Astronomical Twilight 6:10 AM CST 6:32 PM CST
Moon 12:16 PM CST (12/20) 12:31 AM CST (12/20)
Length of Visible Light 9h 56m
Length of Day
8h 50m
First Quarter, 55% of the Moon is Illuminated
Dec 20
First Quarter
Dec 28
Full
Jan 4
Last Quarter
Jan 11
New
Jan 18
First Quarter

Hourly Weather History & Observations

Time (CST) Temp. Windchill Dew Point Humidity Pressure Visibility Wind Dir Wind Speed Gust Speed Precip Events Conditions
12:15 AM - - - N/A% - 10.0 mi North - - N/A   Overcast
12:55 AM - - - N/A% - 10.0 mi North - - N/A   Overcast
1:15 AM - - - N/A% - 10.0 mi North - - N/A   Overcast
1:35 AM - - - N/A% - 10.0 mi North - - N/A   Overcast
1:55 AM - - - N/A% - 10.0 mi North - - N/A   Overcast
2:15 AM - - - N/A% - 10.0 mi North - - N/A   Overcast
2:35 AM - - - N/A% - 10.0 mi North - - N/A   Overcast
2:55 AM - - - N/A% - 10.0 mi North - - N/A   Overcast
3:15 AM - - - N/A% - 9.0 mi North - - N/A   Overcast
3:35 AM - - - N/A% - 9.0 mi North - - N/A   Overcast
3:55 AM - - - N/A% - 7.0 mi North - - N/A   Overcast
4:15 AM - - - N/A% - 7.0 mi North - - N/A   Overcast
4:35 AM - - - N/A% - 6.0 mi North - - N/A   Overcast
4:55 AM - - - N/A% - 5.0 mi North - - N/A   Overcast
5:15 AM - - - N/A% - 4.0 mi North - - N/A   Overcast
5:35 AM - - - N/A% - 4.0 mi North - - N/A   Overcast
5:55 AM - - - N/A% - 2.5 mi North - - N/A   Overcast
6:15 AM - - - N/A% - 2.0 mi North - - N/A   Overcast
6:35 AM - - - N/A% - 2.5 mi North - - N/A   Overcast
6:55 AM - - - N/A% - 1.8 mi North - - N/A   Overcast
7:15 AM - - - N/A% - 3.0 mi North - - N/A   Overcast
7:35 AM - - - N/A% - 4.0 mi North - - N/A   Overcast
7:55 AM - - - N/A% - 4.0 mi North - - N/A   Overcast
8:15 AM - - - N/A% - 4.0 mi North - - N/A   Overcast
8:35 AM - - - N/A% - 4.0 mi North - - N/A   Overcast
8:55 AM - - - N/A% - 4.0 mi North - - N/A   Mostly Cloudy
9:15 AM - - - N/A% - 3.0 mi North - - N/A   Partly Cloudy
9:35 AM - - - N/A% - 2.5 mi North - - N/A   Mostly Cloudy
9:55 AM - - - N/A% - 2.5 mi North - - N/A   Scattered Clouds
10:15 AM - - - N/A% - 2.5 mi North - - N/A   Partly Cloudy
10:35 AM - - - N/A% - 5.0 mi North - - N/A   Partly Cloudy
10:55 AM - - - N/A% - 5.0 mi North - - N/A   Partly Cloudy
11:15 AM - - - N/A% - 1.2 mi North - - N/A   Overcast
11:35 AM - - - N/A% - 1.0 mi North - - N/A   Overcast
11:55 AM - - - N/A% - 2.0 mi North - - N/A   Overcast
12:15 PM - - - N/A% - 2.0 mi North - - N/A   Overcast
12:35 PM 15.8 °F -3.1 °F 15.8 °F 100% 30.00 in - NNW 25.3 mph - N/A   Unknown
12:55 PM 15.8 °F -3.1 °F 8.6 °F 73% 30.02 in 1.2 mi NW 25.3 mph 31.1 mph N/A   Overcast
1:15 PM 15.8 °F -4.1 °F 8.6 °F 73% 30.02 in 1.5 mi NW 28.8 mph 33.4 mph N/A   Overcast
1:35 PM 15.8 °F -2.7 °F 6.8 °F 68% 30.02 in 2.5 mi NW 24.2 mph 31.1 mph N/A   Mostly Cloudy
1:55 PM 14.0 °F -4.7 °F 8.6 °F 79% 30.02 in 8.0 mi NNW 23.0 mph 29.9 mph N/A   Mostly Cloudy
2:15 PM 14.0 °F -5.1 °F 6.8 °F 73% 30.03 in 5.0 mi NNW 24.2 mph 29.9 mph N/A   Scattered Clouds
2:35 PM 14.0 °F -4.3 °F 8.6 °F 79% 30.03 in 4.0 mi NNW 21.9 mph - N/A   Mostly Cloudy
2:55 PM 14.0 °F -4.3 °F 6.8 °F 73% 30.05 in 6.0 mi NW 21.9 mph 27.6 mph N/A   Scattered Clouds
3:15 PM 12.2 °F -7.1 °F 6.8 °F 79% 30.05 in 8.0 mi NW 23.0 mph - N/A   Clear
3:35 PM 12.2 °F -5.3 °F 6.8 °F 79% 30.05 in 9.0 mi NW 18.4 mph - N/A   Clear
3:55 PM 12.2 °F -5.8 °F 6.8 °F 79% 30.06 in 10.0 mi NW 19.6 mph - N/A   Clear
4:15 PM 12.2 °F -6.3 °F 5.0 °F 73% 30.06 in 10.0 mi NW 20.7 mph - N/A   Clear
4:35 PM 10.4 °F -7.2 °F 5.0 °F 79% 30.07 in 10.0 mi NW 17.3 mph - N/A   Clear
4:55 PM 10.4 °F -8.6 °F 3.2 °F 73% 30.07 in 10.0 mi NW 20.7 mph - N/A   Clear
5:15 PM 10.4 °F -8.2 °F 3.2 °F 73% 30.08 in 9.0 mi NW 19.6 mph - N/A   Clear
5:35 PM 8.6 °F -9.5 °F 3.2 °F 79% 30.08 in 10.0 mi NW 17.3 mph - N/A   Clear
5:55 PM 8.6 °F -8.3 °F 3.2 °F 79% 30.08 in 10.0 mi NW 15.0 mph - N/A   Clear
6:15 PM 8.6 °F -8.9 °F 1.4 °F 73% 30.08 in 10.0 mi NW 16.1 mph - N/A   Clear
6:35 PM 6.8 °F -11.8 °F 1.4 °F 79% 30.09 in 10.0 mi NW 17.3 mph - N/A   Clear
6:55 PM 6.8 °F -11.3 °F 1.4 °F 79% 30.09 in 10.0 mi NW 16.1 mph - N/A   Clear
7:15 PM 8.6 °F -9.5 °F 1.4 °F 73% 30.10 in 10.0 mi NW 17.3 mph - N/A   Clear
7:35 PM 6.8 °F -11.8 °F 1.4 °F 79% 30.10 in 10.0 mi NW 17.3 mph - N/A   Clear
7:55 PM 6.8 °F -12.9 °F 1.4 °F 79% 30.10 in 10.0 mi NW 19.6 mph - N/A   Clear
8:15 PM 8.6 °F -11.0 °F 3.2 °F 79% 30.10 in 7.0 mi NW 20.7 mph - N/A   Clear
8:35 PM 8.6 °F -11.0 °F 1.4 °F 73% 30.11 in 5.0 mi NW 20.7 mph - N/A   Clear
8:55 PM 8.6 °F -10.5 °F 3.2 °F 79% 30.12 in 5.0 mi NW 19.6 mph - N/A   Clear
9:15 PM 6.8 °F -11.3 °F 3.2 °F 85% 30.13 in 9.0 mi NW 16.1 mph - N/A   Clear
9:35 PM 6.8 °F -11.8 °F 1.4 °F 79% 30.14 in 9.0 mi NW 17.3 mph - N/A   Clear
9:55 PM 6.8 °F -11.3 °F 1.4 °F 79% 30.14 in 10.0 mi NW 16.1 mph - N/A   Clear
10:15 PM 6.8 °F -11.3 °F 1.4 °F 79% 30.15 in 10.0 mi NW 16.1 mph - N/A   Clear
10:35 PM 5.0 °F -11.6 °F -0.4 °F 78% 30.16 in 10.0 mi NW 12.7 mph - N/A   Clear
10:55 PM 6.8 °F -9.3 °F 1.4 °F 79% 30.17 in 10.0 mi NW 12.7 mph - N/A   Clear
11:15 PM 5.0 °F -13.0 °F -0.4 °F 78% 30.17 in 10.0 mi NW 15.0 mph - N/A   Clear
11:35 PM 3.2 °F -15.9 °F -0.4 °F 85% 30.18 in 10.0 mi NW 16.1 mph - N/A   Clear
11:55 PM 3.2 °F -15.9 °F -0.4 °F 85% 30.18 in 10.0 mi NW 16.1 mph - N/A   Clear